{"data":{"norad_id":45755,"epoch":"2026-09-20T03:18:10.228896Z","epoch_age_seconds":49622,"freshness":"FRESH","line1":"1 45755U 20038AB  26263.13761839  .00136457  00000+0  46194-3 0  9998","line2":"2 45755  53.0392 315.2419 0005234   0.4693 359.6336 15.89034581347295","mean_motion":15.89034581,"eccentricity":0.0005234,"inclination_deg":53.0392,"raan_deg":315.2419,"arg_perigee_deg":0.4693,"mean_anomaly_deg":359.6336,"bstar":0.00046194,"rev_number":34729,"period_min":90.621061191367,"perigee_km":301.49043369492,"apogee_km":308.48632934429,"semimajor_km":6683.1253815196,"source":"CELESTRAK","updated_at":"2026-09-20T09:00:38.457384Z"}}